Retour au catalogue

STARLINK-37201

ActifCommunicationsSSO
NORAD 69220·PAYLOAD·🇺🇸 United States

Lancé May 26, 2026 depuis Vandenberg Space Force Base

Loading…

Prochains Passages (prochaines 24 heures)

TLE

FraisSource: CelesTrak SupGP

Époque: Sep 15, 2026, 03:25 UTC

1 69220C 26115K   26258.14284722 -.00063990  00000+0 -19867-2 0  2586
2 69220  97.2830 274.2966 0001417  88.5036  73.5696 15.33466084    16

Suivez STARLINK-37201 en temps réel avec AllMySat

Download on the App Store